| time (UTC) | temp C | wind direction | speed KPH | gust KPH | rain 1hr cm | rain 24hr cm | rain mn cm | humidity % | barometer mb |
| 20260905053110 | 14 | 2 | 1.6 | 6.4 | 0.00 | 0.00 | 0.00 | 52 | 1016.4 |
| 20260905051543 | 15 | 291 | 4.8 | 8.0 | 0.00 | 0.00 | 0.00 | 50 | 1016.4 |
| 20260905050048 | 16 | 138 | 1.6 | 9.7 | 0.00 | 0.00 | 0.00 | 48 | 1016.5 |
| 20260905044548 | 16 | 138 | 1.6 | 6.4 | 0.00 | 0.00 | 0.00 | 47 | 1016.4 |
| 20260905043043 | 16 | 0 | 0.0 | 16.1 | 0.00 | 0.00 | 0.00 | 46 | 1016.5 |
| 20260905041546 | 17 | 256 | 3.2 | 6.4 | 0.00 | 0.00 | 0.00 | 46 | 1016.4 |
| 20260905040047 | 17 | 316 | 11.3 | 17.7 | 0.00 | 0.00 | 0.00 | 45 | 1015.8 |
| 20260905034550 | 17 | 338 | 16.1 | 24.1 | 0.00 | 0.00 | 0.00 | 44 | 1015.4 |
| 20260905033056 | 17 | 329 | 14.5 | 19.3 | 0.00 | 0.00 | 0.00 | 44 | 1015.4 |
| 20260905031545 | 17 | 317 | 9.7 | 19.3 | 0.00 | 0.00 | 0.00 | 44 | 1015.5 |
| 20260905030047 | 17 | 290 | 8.0 | 14.5 | 0.00 | 0.00 | 0.00 | 43 | 1015.4 |
| 20260905024545 | 17 | 329 | 12.9 | 20.9 | 0.00 | 0.00 | 0.00 | 43 | 1014.9 |
| 20260905023045 | 18 | 329 | 8.0 | 20.9 | 0.00 | 0.00 | 0.00 | 42 | 1014.8 |
| 20260905021545 | 18 | 310 | 17.7 | 29.0 | 0.00 | 0.00 | 0.00 | 42 | 1014.8 |
| 20260905020044 | 18 | 345 | 20.9 | 30.6 | 0.00 | 0.00 | 0.00 | 41 | 1013.8 |
| 20260905014546 | 18 | 350 | 22.5 | 37.0 | 0.00 | 0.00 | 0.00 | 40 | 1013.1 |
| 20260905013047 | 18 | 335 | 25.7 | 37.0 | 0.00 | 0.00 | 0.00 | 39 | 1013.1 |
| 20260905011545 | 18 | 354 | 24.1 | 32.2 | 0.00 | 0.00 | 0.00 | 38 | 1013.3 |
| 20260905010043 | 19 | 349 | 8.0 | 24.1 | 0.00 | 0.00 | 0.00 | 37 | 1013.3 |
| 20260905004549 | 20 | 343 | 19.3 | 29.0 | 0.00 | 0.00 | 0.00 | 35 | 1013.3 |
| 20260905003046 | 20 | 324 | 20.9 | 37.0 | 0.00 | 0.00 | 0.00 | 35 | 1013.4 |
| 20260905001544 | 20 | 295 | 24.1 | 30.6 | 0.00 | 0.00 | 0.00 | 34 | 1013.6 |
| 20260905000048 | 21 | 304 | 22.5 | 32.2 | 0.00 | 0.00 | 0.00 | 33 | 1013.7 |
| 20260904234546 | 21 | 304 | 24.1 | 33.8 | 0.00 | 0.00 | 0.00 | 33 | 1013.5 |
| 20260904233050 | 21 | 307 | 22.5 | 33.8 | 0.00 | 0.00 | 0.00 | 33 | 1013.7 |
| 20260904231545 | 21 | 281 | 19.3 | 37.0 | 0.00 | 0.00 | 0.00 | 33 | 1013.6 |
| 20260904230044 | 21 | 305 | 16.1 | 37.0 | 0.00 | 0.00 | 0.00 | 33 | 1013.4 |
| 20260904224600 | 21 | 291 | 22.5 | 30.6 | 0.00 | 0.00 | 0.00 | 33 | 1013.4 |
| 20260904223048 | 21 | 304 | 27.4 | 38.6 | 0.00 | 0.00 | 0.00 | 33 | 1013.2 |
| 20260904221548 | 21 | 281 | 22.5 | 35.4 | 0.00 | 0.00 | 0.00 | 32 | 1013.0 |
| 20260904220045 | 21 | 299 | 25.7 | 40.2 | 0.00 | 0.00 | 0.00 | 32 | 1013.0 |
| 20260904214550 | 21 | 292 | 20.9 | 41.8 | 0.00 | 0.00 | 0.00 | 34 | 1012.7 |
| 20260904213047 | 21 | 317 | 29.0 | 45.1 | 0.00 | 0.00 | 0.00 | 34 | 1012.4 |
| 20260904211545 | 21 | 292 | 24.1 | 38.6 | 0.00 | 0.00 | 0.00 | 35 | 1012.1 |
| 20260904210052 | 20 | 292 | 33.8 | 43.5 | 0.00 | 0.00 | 0.00 | 35 | 1012.0 |
| 20260904204544 | 20 | 277 | 29.0 | 40.2 | 0.00 | 0.00 | 0.00 | 36 | 1011.9 |
| 20260904203046 | 20 | 277 | 29.0 | 40.2 | 0.00 | 0.00 | 0.00 | 36 | 1011.8 |
| 20260904201558 | 20 | 277 | 24.1 | 37.0 | 0.00 | 0.00 | 0.00 | 38 | 1011.6 |
| 20260904200044 | 20 | 263 | 27.4 | 35.4 | 0.00 | 0.00 | 0.00 | 38 | 1011.5 |
| 20260904194559 | 20 | 287 | 19.3 | 25.7 | 0.00 | 0.00 | 0.00 | 38 | 1011.1 |
| 20260904193046 | 20 | 268 | 19.3 | 29.0 | 0.00 | 0.00 | 0.00 | 37 | 1010.7 |
| 20260904191543 | 20 | 251 | 4.8 | 14.5 | 0.00 | 0.00 | 0.00 | 36 | 1010.4 |
| 20260904190045 | 20 | 246 | 11.3 | 17.7 | 0.00 | 0.00 | 0.00 | 37 | 1010.4 |
| 20260904184545 | 20 | 230 | 4.8 | 11.3 | 0.00 | 0.00 | 0.00 | 35 | 1010.2 |
| 20260904183045 | 20 | 262 | 4.8 | 14.5 | 0.00 | 0.00 | 0.00 | 37 | 1010.1 |
| 20260904181544 | 19 | 263 | 4.8 | 12.9 | 0.00 | 0.00 | 0.00 | 37 | 1010.1 |
| 20260904180048 | 19 | 251 | 6.4 | 17.7 | 0.00 | 0.00 | 0.00 | 38 | 1010.1 |
| 20260904174548 | 18 | 220 | 0.0 | 9.7 | 0.00 | 0.00 | 0.00 | 38 | 1010.0 |
| 20260904173102 | 18 | 188 | 1.6 | 12.9 | 0.00 | 0.00 | 0.00 | 38 | 1009.7 |
| 20260904171548 | 18 | 189 | 3.2 | 12.9 | 0.00 | 0.00 | 0.00 | 39 | 1009.6 |
| 20260904170046 | 18 | 208 | 4.8 | 11.3 | 0.00 | 0.00 | 0.00 | 39 | 1009.5 |
| 20260904164553 | 17 | 183 | 9.7 | 17.7 | 0.00 | 0.00 | 0.00 | 39 | 1009.6 |
| 20260904163042 | 18 | 204 | 11.3 | 19.3 | 0.00 | 0.00 | 0.00 | 39 | 1009.4 |
| 20260904161540 | 18 | 210 | 11.3 | 16.1 | 0.00 | 0.00 | 0.00 | 39 | 1009.5 |
| 20260904160046 | 18 | 198 | 3.2 | 11.3 | 0.00 | 0.00 | 0.00 | 40 | 1009.3 |
| 20260904154547 | 18 | 213 | 3.2 | 14.5 | 0.00 | 0.00 | 0.00 | 39 | 1008.9 |
| 20260904153046 | 18 | 121 | 3.2 | 14.5 | 0.00 | 0.00 | 0.00 | 40 | 1008.3 |
| 20260904151540 | 17 | 58 | 6.4 | 14.5 | 0.00 | 0.00 | 0.00 | 42 | 1007.9 |
| 20260904150104 | 17 | 66 | 4.8 | 16.1 | 0.00 | 0.00 | 0.00 | 43 | 1008.1 |
| 20260904144544 | 16 | 50 | 11.3 | 20.9 | 0.00 | 0.00 | 0.00 | 44 | 1007.9 |
| 20260904143040 | 16 | 54 | 9.7 | 17.7 | 0.00 | 0.00 | 0.00 | 46 | 1007.9 |
| 20260904141546 | 15 | 50 | 4.8 | 16.1 | 0.00 | 0.00 | 0.00 | 48 | 1008.0 |
| 20260904140044 | 15 | 63 | 16.1 | 24.1 | 0.00 | 0.00 | 0.00 | 48 | 1007.7 |
| 20260904134553 | 14 | 73 | 8.0 | 17.7 | 0.00 | 0.00 | 0.00 | 50 | 1008.0 |
| 20260904133046 | 13 | 62 | 9.7 | 19.3 | 0.00 | 0.00 | 0.00 | 52 | 1008.0 |
| 20260904131545 | 13 | 56 | 4.8 | 16.1 | 0.00 | 0.00 | 0.00 | 53 | 1008.1 |
| 20260904130041 | 13 | 50 | 6.4 | 17.7 | 0.00 | 0.00 | 0.00 | 54 | 1007.6 |
| 20260904124545 | 12 | 54 | 11.3 | 24.1 | 0.00 | 0.00 | 0.00 | 55 | 1007.7 |
| 20260904123043 | 12 | 121 | 8.0 | 14.5 | 0.00 | 0.00 | 0.00 | 57 | 1007.9 |
| 20260904121544 | 12 | 54 | 6.4 | 14.5 | 0.00 | 0.00 | 0.00 | 58 | 1007.6 |
| 20260904120052 | 12 | 56 | 6.4 | 12.9 | 0.00 | 0.00 | 0.00 | 55 | 1007.9 |
| 20260904114547 | 13 | 360 | 3.2 | 19.3 | 0.00 | 0.00 | 0.00 | 53 | 1007.9 |
| 20260904113046 | 13 | 56 | 8.0 | 16.1 | 0.00 | 0.00 | 0.00 | 52 | 1008.0 |
| 20260904111546 | 13 | 29 | 11.3 | 16.1 | 0.00 | 0.00 | 0.00 | 52 | 1007.9 |
| 20260904110043 | 13 | 50 | 8.0 | 16.1 | 0.00 | 0.00 | 0.00 | 52 | 1008.0 |
| 20260904104548 | 13 | 61 | 3.2 | 24.1 | 0.00 | 0.00 | 0.00 | 52 | 1008.1 |
| 20260904103044 | 13 | 37 | 14.5 | 20.9 | 0.00 | 0.00 | 0.00 | 53 | 1008.3 |
| 20260904101544 | 12 | 50 | 4.8 | 12.9 | 0.00 | 0.00 | 0.00 | 58 | 1008.6 |
| 20260904100040 | 12 | 268 | 3.2 | 6.4 | 0.00 | 0.00 | 0.00 | 57 | 1008.8 |
| 20260904094551 | 12 | 90 | 1.6 | 12.9 | 0.00 | 0.00 | 0.00 | 57 | 1008.8 |
| 20260904093047 | 12 | 19 | 11.3 | 16.1 | 0.00 | 0.00 | 0.00 | 57 | 1008.9 |
| 20260904091542 | 11 | 50 | 9.7 | 14.5 | 0.00 | 0.00 | 0.00 | 59 | 1008.9 |
| 20260904090046 | 11 | 45 | 9.7 | 14.5 | 0.00 | 0.00 | 0.00 | 60 | 1009.2 |
| 20260904084545 | 11 | 50 | 8.0 | 16.1 | 0.00 | 0.00 | 0.00 | 60 | 1009.2 |
| 20260904083046 | 11 | 83 | 8.0 | 16.1 | 0.00 | 0.00 | 0.00 | 59 | 1009.4 |
| 20260904081546 | 11 | 85 | 6.4 | 11.3 | 0.00 | 0.00 | 0.00 | 63 | 1009.4 |
| 20260904080044 | 11 | 86 | 4.8 | 11.3 | 0.00 | 0.00 | 0.00 | 64 | 1009.6 |
| 20260904074542 | 12 | 77 | 8.0 | 11.3 | 0.00 | 0.00 | 0.00 | 61 | 1009.7 |
| 20260904073046 | 13 | 81 | 4.8 | 8.0 | 0.00 | 0.00 | 0.00 | 58 | 1009.8 |
| 20260904071545 | 13 | 65 | 6.4 | 12.9 | 0.00 | 0.00 | 0.00 | 55 | 1009.8 |
| 20260904070044 | 13 | 79 | 4.8 | 11.3 | 0.00 | 0.00 | 0.00 | 56 | 1009.9 |
| 20260904064540 | 13 | 100 | 3.2 | 4.8 | 0.00 | 0.00 | 0.00 | 55 | 1009.8 |
| 20260904063046 | 13 | 348 | 3.2 | 8.0 | 0.00 | 0.00 | 0.00 | 56 | 1010.0 |
| 20260904061546 | 13 | 69 | 3.2 | 6.4 | 0.00 | 0.00 | 0.00 | 56 | 1010.1 |
| 20260904060041 | 13 | 67 | 1.6 | 4.8 | 0.00 | 0.00 | 0.00 | 56 | 1010.0 |
| 20260904054549 | 13 | 67 | 4.8 | 9.7 | 0.00 | 0.00 | 0.00 | 56 | 1010.3 |